Regional Weather Roundup
Issued by NWS

Home | Current Version | Previous Version | Graphics & Text | Print | Product List | Glossary On
Versions: 1 2 3 4 5 6 7 8 9 10 11 12 13 14 15 16 17 18 19 20 21 22 23 24 25 26 27 28 29 30 31 32 33 34 35 36 37 38 39 40 41 42 43 44 45 46 47 48 49 50
000
ASUS43 KDMX 211507
RWRIA

WEATHER ROUNDUP FOR IOWA
NATIONAL WEATHER SERVICE DES MOINES IA
900 AM CST SUN DEC 21 2014

NOTE: "FAIR" INDICATES FEW OR NO CLOUDS BELOW 12,000 FEET WITH NO
SIGNIFICANT WEATHER AND/OR OBSTRUCTIONS TO VISIBILITY.

* - THESE STATIONS ARE NOT NWS STATIONS...THUS NOT UNDER NWS
QUALITY CONTROL.  THEY ALSO DO NOT REPORT WEATHER SUCH
AS PRECIPITATION OR FOG.

IAZ001>003-012>014-020>022-031>034-043>046-211600-
   NORTHWEST IOWA

CITY           SKY/WX    TMP DP  RH WIND       PRES   REMARKS
CARROLL *      CLOUDY    37  37 100 S17G23    29.87S FOG     WCI  28
CHEROKEE *     FOG       36  36 100 S9        29.81F VSB 1   WCI  29
DENISON *      CLOUDY    37  37 100 S20G29    29.83S FOG     WCI  27
LE MARS *      FOG       36  36 100 S14       29.79F VSB 1   WCI  27
ORANGE CITY *  FOG       36  34  93 S12       29.78F VSB 1/4 WCI  27
SHELDON *      FOG       34  34 100 S12G17    29.78F VSB 1/2 WCI  25
SIOUX CITY     CLOUDY    37  36  96 S12       29.81F FOG     WCI  29
SPENCER        CLOUDY    36  34  92 S15       29.81F FOG     WCI  27
STORM LAKE *   FOG       36  36 100 S17       29.82F VSB 0   WCI  25
$$

IAZ055>058-069>071-079>083-090>094-211600-
   SOUTHWEST IOWA

CITY           SKY/WX    TMP DP  RH WIND       PRES   REMARKS
ATLANTIC *     CLOUDY    37  37 100 S16       29.89F FOG     WCI  28
AUDUBON *      CLOUDY    37  32  81 S13G20    29.88F HAZE    WCI  29
CLARINDA *     CLOUDY    37  36  93 S14G23    29.95F WCI  29
COUNCIL BLFS * CLOUDY    39  39 100 S17G24    29.86S FOG     WCI  30
CRESTON *      CLOUDY    36  36 100 S18G24    29.94F FOG     WCI  25
HARLAN  *      CLOUDY    37  37 100 S17G26    29.90S FOG     WCI  28
LAMONI         CLOUDY    36  34  92 S14       29.99F FOG     WCI  27
RED OAK *      CLOUDY    37  37 100 S15G21    29.92F WCI  28
SHENANDOAH *   CLOUDY    39  37  93 S15G24    29.93F FOG     WCI  31
$$

IAZ047>049-059>061-072>074-084-211600-
   CENTRAL IOWA

CITY           SKY/WX    TMP DP  RH WIND       PRES   REMARKS
AMES           CLOUDY    37  34  89 S14       29.94F FOG     WCI  28
ANKENY *       CLOUDY    39  36  87 S15G21    29.96S WCI  31
CHARITON *     CLOUDY    39  36  87 S15G23    29.99F WCI  31
DES MOINES     CLOUDY    39  34  82 S18G26    29.96F WCI  30
GRINNELL*      CLOUDY    37  36  93 S15       30.00S FOG     WCI  28
KNOXVILLE *    CLOUDY    39  36  87 S16G22    29.98F WCI  30
MARSHALLTOWN   CLOUDY    37  35  92 S15       29.96F FOG     WCI  28
PELLA *        CLOUDY    39  36  87 S12       30.01F FOG     WCI  32
PERRY *        CLOUDY    37  36  93 S15       29.91F FOG     WCI  28
$$

IAZ004>006-015-016-023>025-035-036-211600-
   NORTH CENTRAL IOWA

CITY           SKY/WX    TMP DP  RH WIND       PRES   REMARKS
ALGONA *       FOG       36  36 100 S21       29.85F VSB 1/2 WCI  24
CLARION *      FOG       36  36 100 S21       29.89F VSB 1   WCI  24
ESTHERVILLE    CLOUDY    34  34 100 S17       29.81F FOG     WCI  23
FORT DODGE *   CLOUDY    36  34  93 S12G17    29.88F WCI  27
MASON CITY     CLOUDY    35  35 100 S17       29.91F FOG     WCI  25
FOREST CITY *  CLOUDY    36  34  93 S15       29.89S FOG     WCI  26
IOWA FALLS *   CLOUDY    36  34  93 S17G23    29.94S FOG     WCI  25
$$

IAZ007>011-017>019-026>030-037>042-050>054-066-211600-
   NORTHEAST IOWA

CITY           SKY/WX    TMP DP  RH WIND       PRES   REMARKS
CEDAR RAPIDS   CLOUDY    37  35  92 S13       30.03S FOG     WCI  29
CHARLES CITY * CLOUDY    36  36 100 S17       29.94F FOG     WCI  25
CLINTON *      CLOUDY    36  32  87 S10G16    30.14S WCI  28
DECORAH *      FOG       34  34 100 S10G20    29.96F VSB 1   WCI  26
DUBUQUE        CLOUDY    34  32  92 S17       30.06S FOG     WCI  23
MONTICELLO *   CLOUDY    36  36 100 S13       30.06S FOG     WCI  27
OELWEIN *      CLOUDY    36  36 100 S18       30.00S FOG     WCI  25
WATERLOO       CLOUDY    37  35  92 S15       29.98F FOG     WCI  28
$$

IAZ064-065-067-068-078-211600-
   EAST CENTRAL IOWA

CITY           SKY/WX    TMP DP  RH WIND       PRES   REMARKS
DAVENPORT      CLOUDY    36  32  85 S13       30.11F WCI  27
IOWA CITY      CLOUDY    38  35  89 S14       30.08F WCI  30
MT. PLEASANT * CLOUDY    37  36  93 S8        30.09F WCI  31
MUSCATINE *    CLOUDY    39  36  87 S14       30.10F WCI  31
QUAD CITIES    CLOUDY    37  33  85 S9        30.11F WCI  30
$$

IAZ062-063-075>077-085>089-095>099-211600-
   SOUTHEAST IOWA

CITY           SKY/WX    TMP DP  RH WIND       PRES   REMARKS
BURLINGTON     LGT RAIN  39  35  86 S8        30.10F WCI  33
FAIRFIELD *    CLOUDY    37  34  87 S12       30.07S WCI  30
FORT MADISON * CLOUDY    39  37  93 S12       30.10F WCI  32
KEOKUK *       CLOUDY    39  36  87 S7        30.10F WCI  34
OSKALOOSA *    CLOUDY    37  36  93 S14       30.03F FOG     WCI  29
CENTERVILLE *  CLOUDY    37  37 100 S8        30.04F WCI  31
OTTUMWA        CLOUDY    39  34  82 S14       30.03F WCI  31
WASHINGTON *   CLOUDY    39  39 100 S12       30.07F WCI  32
$$

ABBREVIATIONS USED IN REMARKS
   TC - TEMPERATURES IN CELSIUS
  WCI - WIND CHILL INDEX
   HX - HEAT INDEX
  VSB - VISIBILITY
$$




USA.gov is the U.S. government's official web portal to all federal, state and local government web resources and services.